This is the latest recevied weather packets stored in our database for station/object KD0TGF-W. If no packets are shown the sender has not sent any weather packets the latest 1 day(s).
| Time | Temp. | Humidity | Pressure | Rain* | Wind** | Luminosity | Snow |
|---|---|---|---|---|---|---|---|
| 1777995054 | 8.33° C | 51% | 1010.3 hPa | 0 mm | 2.24 m/s, 321° | - | - |
| 1777994994 | 8.33° C | 50% | 1010.3 hPa | 0 mm | 2.24 m/s, 319° | - | - |
| 1777994934 | 8.33° C | 50% | 1010.2 hPa | 0 mm | 2.24 m/s, 318° | - | - |
| 1777994874 | 8.33° C | 52% | 1010.2 hPa | 0 mm | 1.79 m/s, 323° | - | - |
| 1777994813 | 8.33° C | 53% | 1010.2 hPa | 0 mm | 1.79 m/s, 324° | - | - |
| 1777994754 | 8.33° C | 51% | 1010.2 hPa | 0 mm | 2.24 m/s, 325° | - | - |
| 1777994694 | 8.33° C | 51% | 1010.2 hPa | 0 mm | 2.24 m/s, 325° | - | - |
| 1777994634 | 8.33° C | 53% | 1010.2 hPa | 0 mm | 2.24 m/s, 325° | - | - |
| 1777994574 | 8.33° C | 53% | 1010.2 hPa | 0 mm | 2.68 m/s, 328° | - | - |
| 1777994514 | 7.78° C | 54% | 1010.2 hPa | 0 mm | 2.68 m/s, 330° | - | - |
| 1777994455 | 7.78° C | 55% | 1010.1 hPa | 0 mm | 3.13 m/s, 334° | - | - |
| 1777994394 | 7.78° C | 53% | 1010.2 hPa | 0 mm | 3.58 m/s, 336° | - | - |
| 1777994334 | 7.78° C | 53% | 1010.2 hPa | 0 mm | 3.58 m/s, 337° | - | - |
| 1777994274 | 7.78° C | 53% | 1010.2 hPa | 0 mm | 3.58 m/s, 338° | - | - |
| 1777994214 | 7.78° C | 53% | 1010.1 hPa | 0 mm | 3.58 m/s, 339° | - | - |
| 1777994153 | 7.78° C | 53% | 1010.1 hPa | 0 mm | 3.58 m/s, 339° | - | - |
| 1777994094 | 7.78° C | 53% | 1010.1 hPa | 0 mm | 3.58 m/s, 339° | - | - |
| 1777994034 | 7.78° C | 52% | 1010.2 hPa | 0 mm | 3.58 m/s, 338° | - | - |
| 1777993974 | 7.78° C | 52% | 1010.1 hPa | 0 mm | 3.13 m/s, 337° | - | - |
| 1777993913 | 7.78° C | 52% | 1010.1 hPa | 0 mm | 3.13 m/s, 337° | - | - |
| 1777993854 | 7.78° C | 52% | 1010.2 hPa | 0 mm | 3.13 m/s, 335° | - | - |
| 1777993794 | 7.78° C | 52% | 1010.2 hPa | 0 mm | 2.68 m/s, 335° | - | - |
| 1777993733 | 7.78° C | 54% | 1010.1 hPa | 0 mm | 2.68 m/s, 334° | - | - |
| 1777993674 | 7.78° C | 54% | 1010.1 hPa | 0 mm | 2.68 m/s, 333° | - | - |
| 1777993614 | 7.78° C | 53% | 1010.1 hPa | 0 mm | 2.68 m/s, 334° | - | - |
* Rain latest hour (hover to see other rain measurements)
** Current wind speed in m/s (hover to see current wind gust speed)